| time (UTC) | temp F | wind direction | speed MPH | gust MPH | rain 1hr in | rain 24hr in | rain mn in | humidity % | barometer mb |
| 20260903001557 | 85 | 221 | 1.0 | 4.0 | 0.00 | 0.00 | 0.00 | 67 | 1013.0 |
| 20260903000021 | 86 | 201 | 1.0 | 4.0 | 0.00 | 0.00 | 0.00 | 66 | 1013.0 |
| 20260902234516 | 87 | 217 | 1.0 | 6.0 | 0.00 | 0.00 | 0.00 | 65 | 1012.9 |
| 20260902233002 | 88 | 233 | 3.0 | 8.0 | 0.00 | 0.00 | 0.00 | 63 | 1012.9 |
| 20260902231606 | 89 | 229 | 3.0 | 10.0 | 0.00 | 0.00 | 0.00 | 62 | 1012.9 |
| 20260902230125 | 89 | 211 | 3.0 | 8.0 | 0.00 | 0.00 | 0.00 | 61 | 1013.0 |
| 20260902224559 | 90 | 222 | 7.0 | 10.0 | 0.00 | 0.00 | 0.00 | 59 | 1013.0 |
| 20260902223057 | 90 | 218 | 6.0 | 9.0 | 0.00 | 0.00 | 0.00 | 59 | 1013.1 |
| 20260902221557 | 91 | 263 | 6.0 | 12.0 | 0.00 | 0.00 | 0.00 | 57 | 1013.1 |
| 20260902220057 | 91 | 221 | 5.0 | 10.0 | 0.00 | 0.00 | 0.00 | 57 | 1013.1 |
| 20260902214537 | 91 | 211 | 6.0 | 11.0 | 0.00 | 0.00 | 0.00 | 56 | 1013.1 |
| 20260902213047 | 92 | 213 | 6.0 | 12.0 | 0.00 | 0.00 | 0.00 | 56 | 1013.2 |
| 20260902211543 | 92 | 256 | 5.0 | 10.0 | 0.00 | 0.00 | 0.00 | 56 | 1013.3 |
| 20260902210052 | 92 | 204 | 6.0 | 9.0 | 0.00 | 0.00 | 0.00 | 57 | 1013.3 |
| 20260902204531 | 91 | 224 | 3.0 | 11.0 | 0.00 | 0.00 | 0.00 | 58 | 1013.5 |
| 20260902203030 | 91 | 219 | 6.0 | 13.0 | 0.00 | 0.00 | 0.00 | 55 | 1013.5 |
| 20260902201521 | 92 | 273 | 6.0 | 10.0 | 0.00 | 0.00 | 0.00 | 55 | 1013.7 |
| 20260902200010 | 91 | 197 | 4.0 | 8.0 | 0.00 | 0.00 | 0.00 | 57 | 1014.0 |
| 20260902194512 | 92 | 260 | 5.0 | 10.0 | 0.00 | 0.00 | 0.00 | 54 | 1014.1 |
| 20260902193012 | 91 | 234 | 4.0 | 10.0 | 0.00 | 0.00 | 0.00 | 56 | 1014.3 |
| 20260902191519 | 91 | 261 | 6.0 | 10.0 | 0.00 | 0.00 | 0.00 | 56 | 1014.3 |
| 20260902190129 | 91 | 269 | 8.0 | 12.0 | 0.00 | 0.00 | 0.00 | 53 | 1014.5 |
| 20260902184607 | 91 | 198 | 5.0 | 10.0 | 0.00 | 0.00 | 0.00 | 56 | 1014.6 |
| 20260902183051 | 89 | 228 | 4.0 | 8.0 | 0.00 | 0.00 | 0.00 | 58 | 1014.7 |
| 20260902181549 | 90 | 245 | 6.0 | 12.0 | 0.00 | 0.00 | 0.00 | 58 | 1014.8 |
| 20260902180045 | 90 | 232 | 6.0 | 12.0 | 0.00 | 0.00 | 0.00 | 54 | 1014.9 |
| 20260902174520 | 90 | 193 | 5.0 | 10.0 | 0.00 | 0.00 | 0.00 | 57 | 1015.0 |
| 20260902173032 | 90 | 246 | 4.0 | 11.0 | 0.00 | 0.00 | 0.00 | 58 | 1015.2 |
| 20260902171521 | 90 | 210 | 7.0 | 12.0 | 0.00 | 0.00 | 0.00 | 59 | 1015.5 |
| 20260902170006 | 89 | 295 | 3.0 | 7.0 | 0.00 | 0.00 | 0.00 | 61 | 1015.5 |
| 20260902164507 | 89 | 229 | 3.0 | 8.0 | 0.00 | 0.00 | 0.00 | 59 | 1015.5 |
| 20260902163004 | 89 | 221 | 5.0 | 9.0 | 0.00 | 0.00 | 0.00 | 59 | 1015.6 |
| 20260902161517 | 89 | 244 | 4.0 | 8.0 | 0.00 | 0.00 | 0.00 | 61 | 1015.5 |
| 20260902160103 | 88 | 259 | 4.0 | 7.0 | 0.00 | 0.00 | 0.00 | 61 | 1015.5 |
| 20260902154540 | 88 | 289 | 4.0 | 8.0 | 0.00 | 0.00 | 0.00 | 62 | 1015.7 |
| 20260902153038 | 87 | 273 | 3.0 | 6.0 | 0.00 | 0.00 | 0.00 | 63 | 1015.8 |
| 20260902151536 | 86 | 277 | 3.0 | 7.0 | 0.00 | 0.00 | 0.00 | 64 | 1015.7 |
| 20260902150022 | 85 | 259 | 3.0 | 6.0 | 0.00 | 0.00 | 0.00 | 66 | 1015.8 |
| 20260902144524 | 85 | 273 | 4.0 | 8.0 | 0.00 | 0.00 | 0.00 | 66 | 1015.7 |
| 20260902143030 | 84 | 292 | 3.0 | 7.0 | 0.00 | 0.00 | 0.00 | 67 | 1016.0 |
| 20260902141530 | 83 | 256 | 2.0 | 6.0 | 0.00 | 0.00 | 0.00 | 69 | 1015.8 |
| 20260902140122 | 82 | 258 | 3.0 | 6.0 | 0.00 | 0.00 | 0.00 | 70 | 1015.9 |
| 20260902134603 | 81 | 236 | 3.0 | 7.0 | 0.00 | 0.00 | 0.00 | 70 | 1015.8 |
| 20260902133051 | 81 | 248 | 2.0 | 6.0 | 0.00 | 0.00 | 0.00 | 72 | 1015.8 |
| 20260902131548 | 80 | 246 | 2.0 | 8.0 | 0.00 | 0.00 | 0.00 | 73 | 1016.0 |
| 20260902130015 | 79 | 253 | 4.0 | 7.0 | 0.00 | 0.00 | 0.00 | 73 | 1015.8 |
| 20260902124517 | 78 | 238 | 3.0 | 6.0 | 0.00 | 0.00 | 0.00 | 75 | 1015.9 |
| 20260902123011 | 77 | 233 | 2.0 | 5.0 | 0.00 | 0.00 | 0.00 | 76 | 1015.7 |
| 20260902120105 | 77 | 219 | 1.0 | 7.0 | 0.00 | 0.00 | 0.00 | 77 | 1015.7 |
| 20260902114548 | 76 | 208 | 2.0 | 5.0 | 0.00 | 0.00 | 0.00 | 76 | 1015.5 |
| 20260902113044 | 77 | 197 | 1.0 | 5.0 | 0.00 | 0.00 | 0.00 | 75 | 1015.2 |
| 20260902111538 | 77 | 246 | 2.0 | 5.0 | 0.00 | 0.00 | 0.00 | 75 | 1015.2 |
| 20260902110008 | 77 | 217 | 3.0 | 8.0 | 0.00 | 0.00 | 0.00 | 74 | 1015.0 |
| 20260902104512 | 78 | 188 | 2.0 | 7.0 | 0.00 | 0.00 | 0.00 | 74 | 1015.1 |
| 20260902103100 | 78 | 201 | 4.0 | 8.0 | 0.00 | 0.00 | 0.00 | 73 | 1015.0 |
| 20260902101604 | 78 | 213 | 5.0 | 7.0 | 0.00 | 0.00 | 0.00 | 74 | 1014.9 |
| 20260902100057 | 77 | 229 | 2.0 | 5.0 | 0.00 | 0.00 | 0.00 | 74 | 1014.9 |
| 20260902094544 | 77 | 204 | 2.0 | 6.0 | 0.00 | 0.00 | 0.00 | 75 | 1015.0 |
| 20260902093038 | 77 | 194 | 2.0 | 4.0 | 0.00 | 0.00 | 0.00 | 76 | 1015.0 |
| 20260902091531 | 77 | 196 | 0.0 | 4.0 | 0.00 | 0.00 | 0.00 | 76 | 1014.8 |
| 20260902090010 | 77 | 193 | 2.0 | 5.0 | 0.00 | 0.00 | 0.00 | 77 | 1014.7 |
| 20260902084518 | 76 | 196 | 1.0 | 3.0 | 0.00 | 0.00 | 0.00 | 77 | 1014.7 |
| 20260902083014 | 77 | 182 | 1.0 | 4.0 | 0.00 | 0.00 | 0.00 | 77 | 1014.7 |
| 20260902081616 | 77 | 191 | 0.0 | 4.0 | 0.00 | 0.00 | 0.00 | 76 | 1014.6 |
| 20260902080106 | 77 | 224 | 0.0 | 2.0 | 0.00 | 0.00 | 0.00 | 76 | 1014.5 |
| 20260902074608 | 77 | 227 | 0.0 | 2.0 | 0.00 | 0.00 | 0.00 | 77 | 1014.4 |
| 20260902073052 | 77 | 220 | 1.0 | 3.0 | 0.00 | 0.00 | 0.00 | 77 | 1014.3 |
| 20260902071548 | 77 | 225 | 1.0 | 3.0 | 0.00 | 0.00 | 0.00 | 77 | 1014.3 |
| 20260902070044 | 77 | 223 | 2.0 | 3.0 | 0.00 | 0.00 | 0.00 | 76 | 1014.3 |
| 20260902064525 | 78 | 234 | 1.0 | 5.0 | 0.00 | 0.00 | 0.00 | 76 | 1014.3 |
| 20260902063036 | 78 | 188 | 2.0 | 6.0 | 0.00 | 0.00 | 0.00 | 75 | 1014.4 |
| 20260902061520 | 78 | 246 | 2.0 | 5.0 | 0.00 | 0.00 | 0.00 | 75 | 1014.5 |
| 20260902060006 | 78 | 225 | 2.0 | 3.0 | 0.00 | 0.00 | 0.00 | 74 | 1014.6 |
| 20260902054612 | 79 | 222 | 2.0 | 5.0 | 0.00 | 0.00 | 0.00 | 73 | 1014.6 |
| 20260902053001 | 80 | 196 | 3.0 | 6.0 | 0.00 | 0.00 | 0.00 | 72 | 1014.5 |
| 20260902051505 | 80 | 217 | 2.0 | 6.0 | 0.00 | 0.00 | 0.00 | 72 | 1014.4 |
| 20260902050111 | 80 | 230 | 3.0 | 7.0 | 0.00 | 0.00 | 0.00 | 72 | 1014.5 |
| 20260902044553 | 81 | 196 | 3.0 | 7.0 | 0.00 | 0.00 | 0.00 | 72 | 1014.5 |
| 20260902043107 | 81 | 198 | 4.0 | 7.0 | 0.00 | 0.00 | 0.00 | 71 | 1014.5 |
| 20260902041602 | 81 | 214 | 3.0 | 7.0 | 0.00 | 0.00 | 0.00 | 71 | 1014.6 |
| 20260902040047 | 81 | 189 | 2.0 | 4.0 | 0.00 | 0.00 | 0.00 | 71 | 1014.6 |
| 20260902034533 | 81 | 215 | 2.0 | 5.0 | 0.00 | 0.00 | 0.00 | 71 | 1014.4 |
| 20260902033030 | 82 | 217 | 2.0 | 6.0 | 0.00 | 0.00 | 0.00 | 70 | 1014.5 |
| 20260902031529 | 82 | 200 | 2.0 | 5.0 | 0.00 | 0.00 | 0.00 | 71 | 1014.4 |
| 20260902030011 | 82 | 210 | 3.0 | 6.0 | 0.00 | 0.00 | 0.00 | 71 | 1014.5 |
| 20260902024513 | 83 | 179 | 3.0 | 7.0 | 0.00 | 0.00 | 0.00 | 70 | 1014.5 |
| 20260902023009 | 83 | 232 | 2.0 | 6.0 | 0.00 | 0.00 | 0.00 | 70 | 1014.6 |
| 20260902021506 | 83 | 217 | 3.0 | 5.0 | 0.00 | 0.00 | 0.00 | 70 | 1014.4 |
| 20260902020100 | 83 | 205 | 1.0 | 5.0 | 0.00 | 0.00 | 0.00 | 70 | 1014.3 |
| 20260902014550 | 84 | 191 | 3.0 | 6.0 | 0.00 | 0.00 | 0.00 | 70 | 1014.2 |
| 20260902013052 | 84 | 192 | 2.0 | 6.0 | 0.00 | 0.00 | 0.00 | 70 | 1014.2 |
| 20260902011539 | 84 | 198 | 2.0 | 6.0 | 0.00 | 0.00 | 0.00 | 70 | 1014.0 |
| 20260902010022 | 84 | 186 | 2.0 | 4.0 | 0.00 | 0.00 | 0.00 | 69 | 1013.9 |
| 20260902004526 | 84 | 189 | 2.0 | 3.0 | 0.00 | 0.00 | 0.00 | 69 | 1013.9 |
| 20260902003043 | 84 | 213 | 0.0 | 2.0 | 0.00 | 0.00 | 0.00 | 69 | 1013.9 |